Regional Weather Roundup
Issued by NWS

Home | Current Version | Previous Version | Graphics & Text | Print | Product List | Glossary On
Versions: 1 2 3 4 5 6 7 8 9 10 11 12 13 14 15 16 17 18 19 20 21 22 23 24 25 26 27 28 29 30 31 32 33 34 35 36 37 38 39 40 41 42 43 44 45 46 47 48 49 50
741
ASUS45 KBOU 202107
RWRCO

WEATHER ROUNDUP FOR COLORADO
NATIONAL WEATHER SERVICE DENVER/BOULDER CO
300 PM MDT THU JUL 20 2017

NOTE: "FAIR" INDICATES FEW OR NO CLOUDS BELOW 12000 FEET WITH NO
SIGNIFICANT WEATHER AND/OR OBSTRUCTIONS TO VISIBILITY.

COZ001>005-013-030-031-202200-
...NORTHWEST COLORADO...

CITY           SKY/WX    TMP DP  RH WIND       PRES   REMARKS
CRAIG          FAIR      87  46  24 W9        30.20F
HAYDEN         FAIR      86  48  26 W14       30.23F
MEEKER         PTSUNNY   79  59  50 NW3       30.24F
RABBIT EARS PA FAIR      70  46  43 NW6       30.59F
STEAMBOAT SPGS FAIR      85  49  29 W7        30.26F
WALDEN         FAIR      81  43  26 SW9G20    30.37F
$$

COZ006>008-011-202200-
...WEST CENTRAL VALLEYS...

CITY           SKY/WX    TMP DP  RH WIND       PRES   REMARKS
GRAND JUNCTION FAIR      94  53  25 W9        30.08F
MONTROSE       PTSUNNY   74  52  46 SW10      30.21R
EAGLE          PTSUNNY   90  45  20 SW14G22   30.22F
RIFLE          LGT RAIN  75  60  59 SW14      30.16F
DELTA          FAIR      95  44  16 S10       30.12S
NUCLA          NOT AVBL
$$

COZ017>023-064>068-202200-
...SOUTHWEST COLORADO...

CITY           SKY/WX    TMP DP  RH WIND       PRES   REMARKS
DURANGO        PTSUNNY   88  43  20 W9        30.24F
CORTEZ         FAIR      88  50  27 SW14G20   30.19F
PAGOSA SPRINGS FAIR      83  38  19 SW6G16    30.35F
TELLURIDE      PTSUNNY   70  46  42 W15G28    30.49R THUNDER
WOLF CREEK PAS CLOUDY    54  43  66 E5        30.78R THUNDER
$$

COZ009-010-012-014-032>034-037-058>063-202200-
...CENTRAL COLORADO...

CITY           SKY/WX    TMP DP  RH WIND       PRES   REMARKS
ASPEN          FAIR      81  44  27 VRB5      30.34F
BUENA VISTA    FAIR      79  40  24 NW3       30.35F
COPPER MTN     FAIR      59  39  47 W8        30.74R THUNDER
BERTHOUD PASS  TSTM      50  34  53 SE14G21   30.76F
COTTONWOOD PAS PTSUNNY   73  34  23 SE7       30.53F
GUNNISON       FAIR      81  43  26 NE7G17    30.32F
KREMMLING      FAIR      91  43  18 NW8       30.30F
LEADVILLE      LGT RAIN  60  45  57 E7        30.51S
MONARCH PASS   FAIR      68  32  26 S10G25    30.81F
SALIDA         FAIR      92  29  10 W7        30.35F
SUNLIGHT       FAIR      64  46  52 SW9G16    30.64F
WILKERSON PASS FAIR      70  37  30 S8        30.68F
$$

COZ069>075-202200-
...SAN LUIS VALLEY/SANGRE DE CRISTO MOUNTAINS...

CITY           SKY/WX    TMP DP  RH WIND       PRES   REMARKS
ALAMOSA        FAIR      83  47  28 VRB6      30.32F
DEL NORTE      FAIR      71  47  41 W14G24    30.40R
LA VETA PASS   NOT AVBL
SAGUACHE         N/A    N/A N/A N/A MISG        N/A
$$

COZ035-036-038>040-202200-
...NORTHERN COLORADO FRONT RANGE...

CITY           SKY/WX    TMP DP  RH WIND       PRES   REMARKS
DENVER INTL AP FAIR      95  50  21 SE10      30.14F
DMNS CITY PARK   N/A     88  47  23 NW7       30.13S
AURORA         MOSUNNY   93  49  22 E9        30.15F
FRONT RANGE AP FAIR      93  48  21 NE8G18    30.16F
ERIE MUNI ARPT FAIR      88  49  26 CALM      30.13S
BOULDER MUN AP FAIR      84  54  34 CALM      30.15S
CENTENNIAL     PTSUNNY   92  49  22 E13       30.16F
BROOMFIELD     PTSUNNY   86  48  26 CALM      30.19R THUNDER
FORT COLLINS   FAIR      92  57  30 SE12G20   30.12F
LONGMONT       FAIR      88  54  31 N5        30.15R
$$

COZ041-046-047-076>085-087-088-202200-
...PIKES PEAK/PALMER DIVIDE AND SOUTHERN FOOTHILLS...

CITY           SKY/WX    TMP DP  RH WIND       PRES   REMARKS
COLO. SPRINGS  FAIR      90  53  28 S9        30.22F
A. F. ACADEMY  MOSUNNY   85  53  32 SW12G20   30.23F THUNDER
SCHRIEVER AFB  FAIR      86  51  29 SE9       30.23F
CHEYENNE MTN   FAIR      83  49  30 SE12      30.23F
ELLICOTT       FAIR       1 N/A N/A VRB5      30.20F WCI  -9
FALCON           N/A     87  49  27 S9        30.29F
FORT CARSON    FAIR      90  51  26 S9        30.18F
LIMON          FAIR      91  54  28 CALM      30.15F
MONUMENT HILL  PTSUNNY   86  54  32 S5        30.29F
CANON CITY     SUNNY     95  54  24 E9G16     30.13F
WALSENBURG     FAIR      97  45  16 E10G18    30.18F
TRINIDAD       FAIR      93  31  11 SE9G17    30.18F
$$

COZ042>045-048>051-090-091-202200-
...NORTHEAST COLORADO...

CITY           SKY/WX    TMP DP  RH WIND       PRES   REMARKS
GREELEY ARPT   FAIR      91  57  31 VRB6      30.10F
AKRON          FAIR      95  53  24 NW9       30.10F
BURLINGTON     FAIR      96  61  31 N7        30.05F
WRAY           NOT AVBL
YUMA           NOT AVBL
STERLING       FAIR      91  61  35 NE9       30.06F
HOLYOKE        FAIR      95  61  31 E8        30.05F
FORT MORGAN    FAIR      94  55  27 E9G17     30.09F
$$

COZ086-089-092>099-202200-
...SOUTHEAST COLORADO...

CITY           SKY/WX    TMP DP  RH WIND       PRES   REMARKS
PUEBLO         FAIR      98  51  20 E12G26    30.08F
LA JUNTA       FAIR      95  55  26 VRB6      30.07F
LAMAR          FAIR      96  58  27 SW6       30.01F
SPRINGFIELD      N/A     95  55  26 S14G21    30.08F
$$




USA.gov is the U.S. government's official web portal to all federal, state and local government web resources and services.